Location: Newark
(31.6503°N, 7.8361°W)
Time: 04:45:32
(UTC+00:00)

LightSail 2 - Visible Passes

Search period start: 18 November 2019 00:00
Search period end: 28 November 2019 00:00
Orbit: 700 x 727 km, 24.0° (Epoch: 17 November)

Date Brightness Start Highest point End Pass type
(mag) Time Alt. Az. Time Alt. Az. Time Alt. Az.
18 Nov 8.1 03:48:57 11° ESE 03:48:57 11° ESE 03:49:11 10° ESE visible
18 Nov 6.7 05:27:56 20° SW 05:29:36 23° SSW 05:33:40 10° SE visible
19 Nov 7.0 04:33:39 22° SSE 04:33:39 22° SSE 04:36:09 10° SE visible
19 Nov 7.4 06:14:29 10° SW 06:16:47 13° SSW 06:19:06 10° S visible
20 Nov 7.0 05:18:21 16° SSW 05:19:01 17° SSW 05:22:16 10° SSE visible
21 Nov 7.6 04:24:05 14° SSE 04:24:05 14° SSE 04:25:02 10° SSE visible
22 Nov 7.5 05:08:47 10° SSW 05:08:47 10° SSW 05:09:27 10° S visible
25 Nov 7.8 19:59:31 10° S 19:59:33 10° S 19:59:33 10° S visible
26 Nov 7.4 19:03:48 10° SSE 19:04:15 10° SSE 19:04:43 10° SSE visible
27 Nov 7.2 19:47:40 10° SSW 19:49:52 18° S 19:49:52 18° S visible
